Location: Im Fang
(46.6019°N, 7.2397°E)
Time: 19:37:41
(UTC+00:00)

Nadezhda 4 Rocket - Pass Details

Date: 08 December 2019
Orbit: 949 x 993 km, 82.9° (Epoch: 18 January)

Event Time Altitude Azimuth Distance (km) Brightness Sun altitude
Exits shadow 04:59:12 10° 342° (NNW) 2,760 6.1 -20.2°
Reaches altitude 10° 04:59:17 10° 342° (NNW) 2,730 6.1 -20.2°
Maximum altitude 05:05:14 48° 270° (W) 1,240 4.1 -19.2°
Drops below altitude 10° 05:11:05 10° 197° (SSW) 2,684 6.3 -18.2°
Sets 05:13:38 0° 192° (SSW) 3,620 7.0 -17.8°
